TIANWANG 1B (TW-1B)
1 40927U 15051C   18179.08587331  .00010492  00000-0  20213-3 0  9992
2 40927  97.1905 221.1979 0007942 243.2794 200.7206 15.48016842154904
TIANWANG 1A (TW-1A)
1 40928U 15051D   18178.87049295 +.00003205 +00000-0 +85598-4 0  9993
2 40928 097.1844 212.6473 0009980 285.7638 162.2676 15.38778543154425
LAPAN A2
1 40931U 15052B   18178.05498749 +.00000635 +00000-0 -58449-6 0  9992
2 40931 005.9985 079.7354 0013082 149.3648 210.7760 14.76577990148460
LQSAT
1 40958U 15057A   18179.16979061  .00000011  00000-0  95310-5 0  9994
2 40958  97.9397 252.0696 0017076 304.3958  55.5651 14.73035858146467
CHUBUSAT 2
1 41338U 16012B   18178.56170488 +.00000372 +00000-0 +22346-4 0  9996
2 41338 031.0025 247.7356 0013757 176.2525 183.8215 14.99990912129392
CHUBUSAT 3
1 41339U 16012C   18178.57416053 +.00000306 +00000-0 +17107-4 0  9995
2 41339 031.0113 246.2372 0013634 183.8675 176.1848 15.00177576129389
OUFTI-1
1 41458U 16025C   18178.81213902  .00002301  00000-0  12200-3 0  9991
2 41458  98.1350 242.2303 0171301 111.9510 249.9994 15.04713135119037
E-STAR-2
1 41459U 16025D   18178.75440760 +.00002230 +00000-0 +11875-3 0  9997
2 41459 098.1367 242.0049 0172636 112.8723 249.0827 15.04445007119013
AAUSAT 4
1 41460U 16025E   18178.72292290  .00004560  00000-0  23627-3 0  9995
2 41460  98.1293 242.4858 0162896 108.9765 252.9202 15.05901706119074
NUSAT 1
1 41557U 16033B   18178.78116945  .00001875  00000-0  71099-4 0  9992
2 41557  97.4378 262.9772 0015964 122.6948 237.5833 15.28040513115775
BEESAT 4
1 41619U 16040W   18178.71871866 +.00001911 +00000-0 +86231-4 0  9997
2 41619 097.4145 241.7198 0011416 185.0659 175.0464 15.22161361099690
PRATHAM
1 41783U 16059A   18178.87564197 +.00000074 +00000-0 +23723-4 0  9998
2 41783 098.1168 240.2626 0034811 063.3730 297.1031 14.62929255093526
ALSAT 1N
1 41789U 16059G   18178.75565315  .00000078  00000-0  23809-4 0  9993
2 41789  98.1178 241.3884 0029424  55.9272 304.4713 14.64162117 93564
NAYIF 1
1 42017U 17008BX  18178.72983634 +.00002170 +00000-0 +91225-4 0  9990
2 42017 097.4475 243.7245 0006055 359.3867 000.7362 15.24485403075675
LILACSAT-1
1 42725U 98067ME  18178.93402138 +.00029874 +00000-0 +24757-3 0  9993
2 42725 051.6365 303.2701 0004430 277.9958 082.0536 15.69954281062228
MAX VALIER SAT
1 42778U 17036P   18178.70458454  .00001401  00000-0  65522-4 0  9997
2 42778  97.4026 238.2428 0013671  39.7631 320.4604 15.21338503 56106
